"startDT [UTC]","vpos","CH4 [ppm]","stdev(CH4) [ppm]","CO2 [ppm]","stdev(CO2) [ppm]","H2O_reported [%]","stdev(H2O_reported)","CavityPressure [torr]","CavityTemp [C]","OutletValve","CH4_dry [ppm]","CO2_dry [ppm]","DasTemp [C]","EtalonTemp [C]","WarmBoxTemp [C]","MPVPosition","T_ECpre [C]","T_EC1 [C]","T_EC2 [C]","p_inlet [hPa]","p_in [hPa]","p_out [hPa]","T_inlet [C]","RH_inlet [%]","dwpt_inlet [C]","T_vent [C]","RH_vent [%]","dwpt_vent [C]","flow_vent [l min-1]","flow_inlet [l min-1]","dwpt_sample [C]","T_room [C]"
2015-05-11 00:00:00,0.0,1.90880,0.00040,404.404,0.029,0.6763,0.0013,139.998,45.000,34011.11153,1.92179,407.764,33.438,45.068,45.000,0.00,0.10,-272.71,-272.77,-5,976,-4,23.2,17.7,-2.7,22.9,18.3,-2.5,5.73,1.81,-6.2,27.1
2015-05-11 00:01:00,0.0,1.90906,0.00045,404.424,0.028,0.6762,0.0014,139.998,45.000,34009.16983,1.92201,407.783,33.439,45.068,45.000,0.00,0.10,-272.71,-272.77,-5,976,-4,23.2,17.7,-2.7,22.9,18.2,-2.5,5.73,1.90,-6.2,27.1
2015-05-11 00:02:00,0.0,1.90911,0.00036,404.418,0.020,0.6776,0.0015,139.995,45.000,34009.55459,1.92213,407.783,33.438,45.068,45.000,0.00,0.09,-272.71,-272.77,-5,975,-4,23.2,17.7,-2.6,22.9,18.3,-2.5,5.73,1.95,-6.2,27.2
2015-05-11 00:03:00,0.0,1.90879,0.00034,404.406,0.030,0.6788,0.0018,139.999,45.000,34012.40303,1.92183,407.777,33.438,45.068,45.000,0.00,0.10,-272.71,-272.77,-4,975,-4,23.2,17.7,-2.6,22.9,18.3,-2.5,5.73,1.84,-6.2,27.3
2015-05-11 00:04:00,0.0,1.90883,0.00041,404.391,0.033,0.6798,0.0019,140.001,45.000,34011.54413,1.92185,407.768,33.439,45.068,45.000,0.00,0.10,-272.71,-272.77,-5,977,-4,23.2,17.8,-2.6,22.9,18.3,-2.4,5.73,1.82,-6.2,27.2
2015-05-11 00:05:00,0.0,1.90878,0.00045,404.390,0.031,0.6813,0.0016,139.998,45.000,34011.26741,1.92185,407.775,33.439,45.068,45.000,0.00,0.09,-272.72,-272.78,-5,976,-4,23.2,17.8,-2.6,22.9,18.4,-2.4,5.73,1.92,-6.2,27.2
2015-05-11 00:06:00,0.0,1.90898,0.00037,404.374,0.034,0.6829,0.0014,139.999,45.000,34010.97946,1.92208,407.767,33.438,45.068,45.000,0.00,0.10,-272.72,-272.77,-4,975,-4,23.2,17.9,-2.5,22.9,18.4,-2.4,5.73,1.93,-6.1,27.2
2015-05-11 00:07:00,0.0,1.90859,0.00034,404.387,0.042,0.6868,0.0011,139.998,45.000,34013.27500,1.92179,407.800,33.437,45.068,45.000,0.00,0.10,-272.71,-272.77,-4,976,-4,23.2,18.0,-2.5,22.9,18.5,-2.3,5.73,1.82,-6.1,27.2
2015-05-11 00:08:00,0.0,1.90865,0.00031,404.348,0.040,0.6879,0.0014,140.000,45.000,34012.32571,1.92183,407.766,33.436,45.068,45.000,0.00,0.31,-270.80,-271.29,-5,976,-4,23.2,18.0,-2.4,22.9,18.6,-2.3,5.43,1.96,-9.1,27.2
2015-05-11 00:09:00,0.0,1.90855,0.00039,404.360,0.036,0.6889,0.0018,140.000,45.000,34012.12111,1.92175,407.780,33.435,45.068,45.000,0.00,0.09,-272.72,-272.78,-5,975,-4,23.2,18.0,-2.4,22.9,18.6,-2.2,5.73,1.94,-6.1,27.2
2015-05-11 00:10:00,0.0,1.90879,0.00030,404.368,0.029,0.6901,0.0024,139.998,45.000,34010.90088,1.92205,407.799,33.436,45.068,45.000,0.00,0.09,-272.71,-272.77,-5,977,-4,23.2,18.0,-2.4,22.9,18.6,-2.2,5.73,1.91,-6.1,27.2
2015-05-11 00:11:00,0.0,1.90873,0.00024,404.344,0.040,0.6923,0.0020,140.001,45.000,34012.08418,1.92202,407.783,33.435,45.068,45.000,0.00,0.10,-272.71,-272.77,-5,977,-4,23.2,18.1,-2.3,22.9,18.7,-2.2,5.73,1.82,-6.1,27.2
2015-05-11 00:12:00,0.0,1.90867,0.00039,404.345,0.043,0.6938,0.0020,140.001,45.000,34011.69542,1.92199,407.791,33.438,45.068,45.000,0.00,0.09,-272.72,-272.77,-4,975,-4,23.3,18.2,-2.3,22.9,18.7,-2.1,5.73,1.84,-6.1,27.2
2015-05-11 00:13:00,0.0,1.90852,0.00036,404.357,0.034,0.6955,0.0014,140.002,45.000,34012.92212,1.92188,407.814,33.435,45.068,45.000,0.00,0.10,-272.71,-272.77,-5,976,-4,23.2,18.2,-2.3,22.9,18.7,-2.1,5.73,1.94,-6.1,27.2
2015-05-11 00:14:00,0.0,1.90853,0.00023,404.364,0.036,0.6971,0.0014,140.000,45.000,34012.76978,1.92188,407.829,33.433,45.068,45.000,0.00,0.10,-272.71,-272.78,-5,976,-4,23.2,18.3,-2.2,22.9,18.8,-2.1,5.73,1.91,-6.1,27.2
2015-05-11 00:15:00,0.0,1.90865,0.00036,404.349,0.022,0.6999,0.0018,139.999,45.000,34010.55868,1.92208,407.826,33.436,45.068,45.000,0.00,0.09,-272.71,-272.78,-5,976,-4,23.2,18.3,-2.2,22.9,18.9,-2.0,5.73,1.81,-6.1,27.2
2015-05-11 00:16:00,0.0,1.90850,0.00035,404.330,0.036,0.7030,0.0025,140.002,45.000,34012.12071,1.92204,407.826,33.456,45.068,45.000,0.00,0.09,-272.72,-272.78,-4,977,-4,23.3,18.4,-2.1,22.9,18.9,-2.0,5.73,1.85,-6.1,27.2
2015-05-11 00:17:00,0.0,1.90856,0.00033,404.297,0.032,0.7039,0.0021,139.998,45.000,34010.78015,1.92205,407.795,33.483,45.068,45.000,0.00,0.10,-272.72,-272.77,-5,976,-5,23.3,18.4,-2.1,22.9,19.0,-1.9,5.73,1.95,-6.1,27.2
2015-05-11 00:18:00,0.0,1.90840,0.00042,404.313,0.033,0.7039,0.0013,139.997,45.000,34011.47106,1.92192,407.812,33.485,45.068,45.000,0.00,0.10,-272.71,-272.78,-5,975,-4,23.3,18.4,-2.1,22.9,19.0,-1.9,5.73,1.89,-6.1,27.2
2015-05-11 00:19:00,0.0,1.90842,0.00038,404.324,0.042,0.7040,0.0021,139.999,45.000,34011.23640,1.92192,407.824,33.494,45.068,45.000,0.00,0.09,-272.72,-272.77,-5,976,-4,23.3,18.4,-2.1,22.9,19.0,-1.9,5.73,1.81,-6.1,27.2
2015-05-11 00:20:00,0.0,1.90834,0.00040,404.318,0.021,0.7041,0.0020,139.998,45.000,34012.88280,1.92187,407.819,33.500,45.068,45.000,0.00,0.10,-272.72,-272.77,-5,977,-5,23.3,18.4,-2.1,22.9,19.0,-2.0,5.73,1.87,-6.1,27.1
2015-05-11 00:21:00,0.0,1.90828,0.00047,404.318,0.034,0.7056,0.0022,139.999,45.000,34013.40647,1.92183,407.826,33.501,45.068,45.000,0.00,0.10,-272.71,-272.77,-5,976,-5,23.3,18.4,-2.1,23.0,19.0,-1.9,5.73,1.95,-6.1,27.1
2015-05-11 00:22:00,0.0,1.90836,0.00037,404.321,0.029,0.7051,0.0016,139.999,45.000,34013.91148,1.92187,407.826,33.501,45.068,45.000,0.00,0.09,-272.72,-272.78,-4,975,-5,23.3,18.4,-2.1,22.9,19.0,-1.9,5.73,1.88,-6.1,27.2
2015-05-11 00:23:00,0.0,1.90841,0.00030,404.315,0.028,0.7059,0.0017,140.001,45.000,34015.81697,1.92197,407.822,33.500,45.068,45.000,0.00,0.09,-272.71,-272.77,-5,977,-5,23.3,18.4,-2.1,23.0,19.0,-1.9,5.73,1.81,-6.1,27.2
2015-05-11 00:24:00,0.0,1.90838,0.00029,404.308,0.032,0.7073,0.0019,140.001,45.000,34014.90993,1.92197,407.824,33.498,45.068,45.000,0.00,0.10,-272.71,-272.76,-5,976,-5,23.3,18.5,-2.0,23.0,19.0,-1.9,5.73,1.88,-6.1,27.2
2015-05-11 00:25:00,0.0,1.90818,0.00035,404.302,0.033,0.7106,0.0014,140.001,45.000,34015.06313,1.92183,407.834,33.494,45.068,45.000,0.00,0.09,-272.71,-272.77,-5,975,-5,23.3,18.6,-2.0,23.0,19.1,-1.8,5.73,1.95,-6.1,27.2
2015-05-11 00:26:00,0.0,1.90807,0.00032,404.259,0.041,0.7117,0.0016,140.004,45.000,34016.92368,1.92173,407.800,33.495,45.068,45.000,0.00,0.10,-272.71,-272.78,-5,976,-5,23.3,18.6,-1.9,23.0,19.2,-1.8,5.73,1.86,-6.1,27.2
2015-05-11 00:27:00,0.0,1.90817,0.00033,404.270,0.030,0.7140,0.0028,140.002,45.000,34015.14343,1.92188,407.816,33.500,45.068,45.000,0.00,0.10,-272.71,-272.77,-5,977,-5,23.3,18.7,-1.9,23.0,19.2,-1.7,5.73,1.80,-6.1,27.2
2015-05-11 00:28:00,0.0,1.90836,0.00030,404.278,0.036,0.7164,0.0013,139.995,45.000,34012.48509,1.92210,407.841,33.501,45.068,45.000,0.00,0.10,-272.71,-272.77,-4,975,-5,23.3,18.7,-1.9,23.0,19.3,-1.7,5.73,1.91,-6.1,27.2
2015-05-11 00:29:00,0.0,1.90883,0.00035,404.285,0.029,0.7173,0.0016,140.001,45.000,34014.72410,1.92262,407.852,33.500,45.068,45.000,0.00,0.09,-272.72,-272.77,-5,976,-5,23.3,18.8,-1.8,23.0,19.3,-1.7,5.73,1.95,-6.1,27.2
2015-05-11 00:30:00,0.0,1.90881,0.00038,404.275,0.025,0.7180,0.0022,139.998,45.000,34015.52272,1.92256,407.844,33.500,45.068,45.000,0.00,0.10,-272.71,-272.78,-5,977,-5,23.3,18.8,-1.8,23.0,19.3,-1.7,5.73,1.84,-6.1,27.2
2015-05-11 00:31:00,0.0,1.90838,0.00052,404.264,0.039,0.7186,0.0018,139.995,45.000,34015.35340,1.92220,407.839,33.513,45.068,45.000,0.00,0.10,-272.71,-272.77,-5,976,-5,23.3,18.8,-1.8,23.0,19.4,-1.6,5.73,1.82,-6.1,27.2
2015-05-11 00:32:00,0.0,1.90839,0.00044,404.260,0.033,0.7196,0.0014,140.000,45.000,34015.36307,1.92224,407.837,33.526,45.068,45.000,0.00,0.09,-272.72,-272.77,-4,976,-4,23.3,18.8,-1.8,23.0,19.4,-1.6,5.73,1.92,-6.1,27.2
2015-05-11 00:33:00,0.0,1.90841,0.00028,404.265,0.034,0.7198,0.0015,139.998,45.000,34014.91927,1.92222,407.845,33.513,45.068,45.000,0.00,0.10,-272.72,-272.77,-5,977,-5,23.3,18.8,-1.8,23.0,19.4,-1.6,5.73,1.93,-6.1,27.2
2015-05-11 00:34:00,0.0,1.90852,0.00031,404.269,0.031,0.7180,0.0024,139.999,45.000,34015.56059,1.92232,407.839,33.513,45.068,45.000,0.00,0.10,-272.71,-272.77,-5,976,-5,23.3,18.8,-1.8,23.0,19.3,-1.7,5.73,1.83,-6.1,27.2
2015-05-11 00:35:00,0.0,1.90837,0.00036,404.254,0.042,0.7175,0.0022,139.998,45.000,34016.37492,1.92214,407.823,33.500,45.068,45.000,0.00,0.10,-272.71,-272.77,-5,976,-5,23.3,18.7,-1.8,23.0,19.3,-1.7,5.73,1.82,-6.1,27.2
2015-05-11 00:36:00,0.0,1.90810,0.00034,404.244,0.035,0.7165,0.0021,140.001,45.000,34018.43139,1.92188,407.807,33.499,45.068,45.000,0.00,0.09,-272.72,-272.77,-5,977,-5,23.3,18.7,-1.8,23.0,19.3,-1.7,5.73,1.93,-6.1,27.3
2015-05-11 00:37:00,0.0,1.90846,0.00040,404.246,0.040,0.7131,0.0015,140.002,45.000,34016.70026,1.92213,407.791,33.497,45.068,45.000,0.00,0.09,-272.71,-272.77,-5,976,-5,23.3,18.6,-1.9,23.0,19.2,-1.7,5.73,1.92,-6.1,27.3
2015-05-11 00:38:00,0.0,1.90862,0.00032,404.270,0.033,0.7106,0.0012,140.000,45.000,34017.69187,1.92227,407.803,33.498,45.068,45.000,0.00,0.10,-272.71,-272.77,-5,976,-5,23.3,18.5,-2.0,23.0,19.1,-1.8,5.73,1.81,-6.1,27.3
2015-05-11 00:39:00,0.0,1.90861,0.00040,404.309,0.028,0.7073,0.0017,140.002,45.000,34018.60614,1.92217,407.824,33.500,45.068,45.000,0.00,0.10,-272.72,-272.78,-5,977,-5,23.3,18.4,-2.0,23.0,19.0,-1.9,5.73,1.85,-6.1,27.2
2015-05-11 00:40:00,0.0,1.90874,0.00035,404.303,0.026,0.7068,0.0020,139.998,45.000,34016.10082,1.92230,407.816,33.499,45.068,45.000,0.00,0.09,-272.72,-272.77,-5,976,-4,23.3,18.4,-2.1,23.0,19.0,-1.9,5.73,1.95,-6.1,27.3
2015-05-11 00:41:00,0.0,1.90890,0.00034,404.337,0.026,0.7028,0.0020,139.998,45.000,34016.36331,1.92238,407.831,33.504,45.068,45.000,0.00,0.10,-272.71,-272.77,-4,976,-4,23.3,18.3,-2.1,23.0,18.9,-1.9,5.73,1.90,-6.1,27.3
2015-05-11 00:42:00,0.0,1.90892,0.00033,404.316,0.036,0.7017,0.0019,139.998,45.000,34017.49118,1.92242,407.804,33.512,45.068,45.000,0.00,0.10,-272.71,-272.78,-5,977,-5,23.3,18.2,-2.2,23.0,18.8,-2.0,5.73,1.80,-6.1,27.2
2015-05-11 00:43:00,0.0,1.90890,0.00038,404.327,0.029,0.7013,0.0018,139.999,45.000,34017.60523,1.92236,407.813,33.521,45.068,45.000,0.00,0.10,-272.71,-272.78,-5,975,-5,23.3,18.2,-2.2,23.0,18.8,-2.0,5.73,1.87,-6.1,27.3
2015-05-11 00:44:00,0.0,1.90915,0.00037,404.333,0.027,0.7001,0.0018,140.000,45.000,34016.27023,1.92259,407.812,33.523,45.068,45.000,0.00,0.10,-272.71,-272.77,-5,976,-5,23.3,18.2,-2.2,23.0,18.8,-2.0,5.73,1.95,-6.1,27.3
2015-05-11 00:45:00,0.0,1.90920,0.00031,404.351,0.030,0.7014,0.0019,140.002,45.000,34016.23693,1.92268,407.837,33.563,45.068,45.000,0.00,0.10,-272.71,-272.77,-5,977,-5,23.3,18.2,-2.2,23.0,18.8,-2.0,5.73,1.87,-6.1,27.3
2015-05-11 00:46:00,0.0,1.90904,0.00034,404.317,0.028,0.7034,0.0023,139.996,45.000,34017.16370,1.92255,407.814,33.563,45.068,45.000,0.00,0.10,-272.72,-272.78,-5,976,-5,23.3,18.3,-2.1,23.0,18.9,-2.0,5.73,1.81,-6.1,27.3
2015-05-11 00:47:00,0.0,1.90916,0.00032,404.333,0.023,0.7048,0.0016,140.000,45.000,34018.23619,1.92266,407.836,33.562,45.068,45.000,0.00,0.10,-272.71,-272.77,-4,976,-5,23.4,18.3,-2.1,23.0,18.9,-1.9,5.73,1.89,-6.0,27.2
2015-05-11 00:48:00,0.0,1.90948,0.00038,404.350,0.039,0.7031,0.0019,140.003,45.000,34018.91682,1.92300,407.844,33.571,45.068,45.000,0.00,0.10,-272.71,-272.77,-5,976,-5,23.4,18.3,-2.1,23.0,18.9,-1.9,5.73,1.94,-6.0,27.2
2015-05-11 00:49:00,0.0,1.90901,0.00036,404.315,0.043,0.7043,0.0018,140.002,45.000,34020.62162,1.92258,407.817,33.615,45.068,45.000,0.00,0.09,-272.72,-272.77,-5,976,-5,23.4,18.3,-2.1,23.0,18.9,-1.9,5.73,1.85,-6.1,27.3
2015-05-11 00:50:00,0.0,1.90897,0.00034,404.325,0.029,0.7058,0.0019,140.001,45.000,34019.66021,1.92253,407.832,33.619,45.068,45.000,0.00,0.10,-272.72,-272.77,-5,976,-5,23.4,18.3,-2.1,23.0,18.9,-1.9,5.73,1.81,-6.1,27.3
2015-05-11 00:51:00,0.0,1.90912,0.00051,404.337,0.034,0.7036,0.0014,140.003,45.000,34019.96197,1.92258,407.834,33.603,45.068,45.000,0.00,0.10,-272.71,-272.76,-4,976,-5,23.4,18.3,-2.1,23.0,18.9,-1.9,5.73,1.92,-6.0,27.3
2015-05-11 00:52:00,0.0,1.90924,0.00037,404.326,0.036,0.7036,0.0020,140.000,45.000,34019.54642,1.92277,407.824,33.591,45.068,45.000,0.00,0.10,-272.71,-272.78,-5,977,-5,23.4,18.3,-2.1,23.1,18.9,-1.9,5.73,1.94,-6.1,27.2
2015-05-11 00:53:00,0.0,1.90909,0.00033,404.341,0.029,0.7044,0.0017,139.999,45.000,34019.82628,1.92262,407.844,33.583,45.068,45.000,0.00,0.09,-272.71,-272.77,-5,976,-5,23.4,18.3,-2.1,23.1,18.9,-1.9,5.73,1.83,-6.1,27.3
2015-05-11 00:54:00,0.0,1.90902,0.00035,404.336,0.038,0.7047,0.0023,139.997,45.000,34019.38695,1.92254,407.840,33.589,45.068,45.000,0.00,0.10,-272.70,-272.77,-5,977,-5,23.4,18.3,-2.1,23.1,18.9,-1.9,5.73,1.83,-6.0,27.4
2015-05-11 00:55:00,0.0,1.90913,0.00038,404.349,0.032,0.7045,0.0017,139.996,45.000,34018.76777,1.92269,407.850,33.566,45.068,45.000,0.00,0.10,-272.71,-272.77,-5,976,-5,23.4,18.3,-2.1,23.1,18.9,-1.9,5.73,1.94,-6.0,27.3
2015-05-11 00:56:00,0.0,1.90912,0.00049,404.324,0.043,0.7063,0.0016,139.999,45.000,34018.64597,1.92265,407.836,33.564,45.068,45.000,0.00,0.09,-272.72,-272.78,-4,976,-5,23.4,18.3,-2.1,23.1,18.9,-1.9,5.73,1.92,-6.0,27.3
2015-05-11 00:57:00,0.0,1.90908,0.00038,404.337,0.029,0.7053,0.0023,140.001,45.000,34020.16265,1.92265,407.842,33.565,45.068,45.000,0.00,0.10,-272.71,-272.77,-5,977,-5,23.4,18.3,-2.1,23.1,18.9,-1.9,5.73,1.81,-6.0,27.3
2015-05-11 00:58:00,0.0,1.90878,0.00035,404.340,0.027,0.7032,0.0017,139.999,45.000,34023.29296,1.92229,407.837,33.565,45.068,45.000,0.00,0.10,-272.71,-272.77,-5,976,-5,23.4,18.3,-2.1,23.1,18.9,-1.9,5.73,1.84,-6.0,27.2
2015-05-11 00:59:00,0.0,1.90910,0.00044,404.365,0.039,0.7029,0.0017,140.004,45.000,34024.72584,1.92255,407.860,33.567,45.068,45.000,0.00,0.09,-272.72,-272.77,-5,976,-5,23.4,18.2,-2.1,23.1,18.8,-2.0,5.73,1.95,-6.0,27.3
2015-05-11 01:00:00,0.0,1.90915,0.00036,404.335,0.034,0.7023,0.0022,139.998,45.000,34021.25347,1.92268,407.827,33.573,45.068,45.000,0.00,0.09,-272.71,-272.77,-5,977,-5,23.4,18.2,-2.1,23.1,18.8,-1.9,5.73,1.90,-6.0,27.3
2015-05-11 01:01:00,0.0,1.90912,0.00032,404.345,0.040,0.7007,0.0017,140.002,45.000,34019.56293,1.92259,407.824,33.582,45.068,45.000,0.00,0.10,-272.70,-272.77,-5,977,-5,23.4,18.1,-2.2,23.1,18.8,-2.0,5.73,1.80,-6.0,27.3
2015-05-11 01:02:00,0.0,1.90890,0.00035,404.346,0.029,0.6998,0.0014,139.999,45.000,34021.88680,1.92231,407.826,33.610,45.068,45.000,0.00,0.09,-272.72,-272.77,-4,976,-5,23.4,18.1,-2.2,23.1,18.7,-2.0,5.73,1.86,-6.0,27.3
2015-05-11 01:03:00,0.0,1.90902,0.00043,404.384,0.035,0.6974,0.0022,140.000,45.000,34021.48973,1.92243,407.850,33.617,45.068,45.000,0.00,0.09,-272.72,-272.77,-5,976,-5,23.4,18.1,-2.2,23.1,18.7,-2.0,5.73,1.95,-6.0,27.4
2015-05-11 01:04:00,0.0,1.90911,0.00042,404.372,0.046,0.6976,0.0019,139.999,45.000,34020.38895,1.92249,407.838,33.617,45.068,45.000,0.00,0.10,-272.71,-272.77,-5,977,-5,23.4,18.1,-2.2,23.1,18.6,-2.0,5.73,1.88,-6.0,27.3
2015-05-11 01:05:00,0.0,1.90933,0.00043,404.391,0.025,0.6949,0.0027,139.998,45.000,34018.76502,1.92268,407.846,33.603,45.068,45.000,0.00,0.10,-272.71,-272.77,-5,976,-5,23.4,18.0,-2.3,23.1,18.6,-2.1,5.73,1.81,-6.0,27.3
2015-05-11 01:06:00,0.0,1.90941,0.00034,404.411,0.030,0.6935,0.0018,140.002,45.000,34018.91829,1.92270,407.858,33.587,45.068,45.000,0.00,0.09,-272.72,-272.77,-4,976,-5,23.4,17.9,-2.3,23.1,18.5,-2.1,5.73,1.88,-6.0,27.3
2015-05-11 01:07:00,0.0,1.90943,0.00025,404.412,0.034,0.6922,0.0015,140.000,45.000,34019.00153,1.92273,407.852,33.590,45.068,45.000,0.00,0.09,-272.72,-272.77,-5,977,-5,23.4,17.9,-2.4,23.1,18.5,-2.2,5.73,1.94,-6.0,27.3
2015-05-11 01:08:00,0.0,1.90979,0.00034,404.426,0.035,0.6913,0.0017,140.000,45.000,34016.48867,1.92308,407.863,33.605,45.068,45.000,0.00,0.10,-272.71,-272.77,-5,976,-5,23.4,17.9,-2.4,23.1,18.5,-2.2,5.73,1.86,-6.0,27.3
2015-05-11 01:09:00,0.0,1.90929,0.00026,404.416,0.032,0.6898,0.0020,140.002,45.000,34020.54448,1.92252,407.843,33.613,45.068,45.000,0.00,0.10,-272.71,-272.77,-5,976,-5,23.4,17.8,-2.4,23.1,18.4,-2.2,5.73,1.81,-6.0,27.3
2015-05-11 01:10:00,0.0,1.90917,0.00033,404.425,0.027,0.6890,0.0018,140.002,45.000,34020.43486,1.92239,407.849,33.594,45.068,45.000,0.00,0.10,-272.71,-272.77,-5,977,-5,23.4,17.8,-2.4,23.1,18.4,-2.2,5.73,1.91,-6.0,27.4
2015-05-11 01:11:00,0.0,1.90928,0.00036,404.446,0.026,0.6886,0.0013,139.999,45.000,34019.45501,1.92252,407.868,33.592,45.068,45.000,0.00,0.10,-272.71,-272.77,-5,976,-5,23.4,17.8,-2.4,23.1,18.4,-2.2,5.73,1.94,-6.0,27.3
2015-05-11 01:12:00,0.0,1.90916,0.00033,404.435,0.024,0.6877,0.0016,140.002,45.000,34021.86140,1.92238,407.853,33.610,45.068,45.000,0.00,0.10,-272.71,-272.78,-4,976,-5,23.4,17.8,-2.4,23.1,18.3,-2.2,5.73,1.83,-6.0,27.4
2015-05-11 01:13:00,0.0,1.90902,0.00038,404.436,0.022,0.6883,0.0021,139.997,45.000,34023.42959,1.92222,407.855,33.598,45.068,45.000,0.00,0.10,-272.71,-272.78,-5,977,-5,23.4,17.8,-2.4,23.1,18.4,-2.2,5.73,1.81,-6.0,27.3
2015-05-11 01:14:00,0.0,1.90904,0.00035,404.419,0.032,0.6856,0.0024,139.998,45.000,34023.13722,1.92219,407.826,33.599,45.068,45.000,0.00,0.10,-272.71,-272.77,-5,976,-5,23.4,17.7,-2.5,23.1,18.3,-2.3,5.73,1.92,-6.0,27.4
2015-05-11 01:15:00,0.0,1.90940,0.00028,404.443,0.027,0.6837,0.0018,139.997,45.000,34021.83888,1.92250,407.839,33.609,45.068,45.000,0.00,0.10,-272.72,-272.77,-5,977,-5,23.4,17.6,-2.5,23.1,18.2,-2.3,5.73,1.93,-6.0,27.3
2015-05-11 01:16:00,0.0,1.90947,0.00037,404.457,0.034,0.6837,0.0015,139.997,45.000,34020.33012,1.92261,407.856,33.603,45.068,45.000,0.00,0.10,-272.72,-272.78,-5,977,-5,23.4,17.6,-2.5,23.1,18.2,-2.4,5.73,1.81,-6.0,27.3
2015-05-11 01:17:00,0.0,1.90930,0.00034,404.444,0.033,0.6861,0.0017,139.999,45.000,34021.02345,1.92244,407.852,33.613,45.068,45.000,0.00,0.10,-272.71,-272.77,-5,976,-5,23.4,17.7,-2.5,23.1,18.2,-2.3,5.73,1.84,-6.0,27.3
2015-05-11 01:18:00,0.0,1.90921,0.00036,404.459,0.039,0.6848,0.0022,140.002,45.000,34022.99936,1.92239,407.862,33.614,45.068,45.000,0.00,0.10,-272.71,-272.77,-5,976,-5,23.4,17.7,-2.5,23.1,18.2,-2.3,5.73,1.94,-6.0,27.4
2015-05-11 01:19:00,0.0,1.90897,0.00029,404.466,0.023,0.6831,0.0018,140.003,45.000,34024.75103,1.92209,407.860,33.620,45.068,45.000,0.00,0.09,-272.71,-272.77,-5,977,-5,23.5,17.6,-2.5,23.1,18.2,-2.4,5.73,1.90,-6.0,27.3
2015-05-11 01:20:00,0.0,1.90893,0.00027,404.464,0.031,0.6836,0.0011,140.000,45.000,34025.05117,1.92203,407.860,33.607,45.068,45.000,0.00,0.09,-272.71,-272.77,-5,977,-5,23.4,17.6,-2.5,23.1,18.2,-2.4,5.73,1.81,-6.0,27.3
2015-05-11 01:21:00,0.0,1.90871,0.00035,404.435,0.027,0.6853,0.0013,140.002,45.000,34028.16741,1.92190,407.840,33.594,45.068,45.000,0.00,0.10,-272.71,-272.77,-4,976,-5,23.5,17.7,-2.5,23.1,18.2,-2.3,5.73,1.85,-6.0,27.3
2015-05-11 01:22:00,0.0,1.90901,0.00033,404.454,0.038,0.6874,0.0017,139.999,45.000,34025.15381,1.92214,407.867,33.602,45.068,45.000,0.00,0.10,-272.71,-272.77,-5,977,-5,23.5,17.7,-2.5,23.1,18.2,-2.3,5.73,1.94,-6.0,27.3
2015-05-11 01:23:00,0.0,1.90894,0.00042,404.469,0.033,0.6859,0.0015,140.000,45.000,34025.39483,1.92209,407.879,33.597,45.068,45.000,0.00,0.09,-272.71,-272.78,-5,976,-5,23.4,17.7,-2.5,23.1,18.2,-2.3,5.73,1.88,-6.0,27.3
2015-05-11 01:24:00,0.0,1.90879,0.00039,404.452,0.019,0.6845,0.0013,140.003,45.000,34027.31859,1.92198,407.853,33.625,45.068,45.000,0.00,0.10,-272.71,-272.77,-5,977,-5,23.5,17.6,-2.5,23.1,18.2,-2.3,5.73,1.80,-6.0,27.3
2015-05-11 01:25:00,0.0,1.90876,0.00024,404.469,0.044,0.6821,0.0021,139.999,45.000,34025.76369,1.92185,407.858,33.633,45.068,45.000,0.00,0.10,-272.71,-272.77,-5,977,-5,23.5,17.6,-2.6,23.1,18.1,-2.4,5.73,1.88,-6.0,27.3
2015-05-11 01:26:00,0.0,1.90898,0.00036,404.478,0.042,0.6824,0.0015,139.999,45.000,34024.99690,1.92204,407.869,33.643,45.068,45.000,0.00,0.09,-272.72,-272.78,-5,977,-5,23.5,17.5,-2.6,23.1,18.1,-2.4,5.73,1.95,-6.0,27.4
2015-05-11 01:27:00,0.0,1.90898,0.00032,404.477,0.025,0.6815,0.0014,139.999,45.000,34026.50686,1.92206,407.863,33.631,45.068,45.000,0.00,0.10,-272.71,-272.77,-5,976,-5,23.5,17.5,-2.6,23.1,18.1,-2.5,5.73,1.85,-6.0,27.4
2015-05-11 01:28:00,0.0,1.90912,0.00033,404.458,0.036,0.6830,0.0028,140.002,45.000,34026.59937,1.92224,407.851,33.628,45.068,45.000,0.00,0.10,-272.71,-272.77,-5,977,-5,23.5,17.6,-2.5,23.1,18.1,-2.4,5.73,1.80,-6.0,27.4
2015-05-11 01:29:00,0.0,1.90897,0.00036,404.482,0.042,0.6834,0.0020,139.998,45.000,34023.85732,1.92210,407.878,33.625,45.068,45.000,0.00,0.10,-272.72,-272.77,-5,977,-5,23.5,17.6,-2.6,23.2,18.1,-2.4,5.73,1.91,-6.0,27.4
2015-05-11 01:30:00,0.0,1.90898,0.00026,404.485,0.049,0.6810,0.0016,140.002,45.000,34025.59571,1.92201,407.869,33.625,45.068,45.000,0.00,0.09,-272.72,-272.78,-4,976,-5,23.5,17.5,-2.6,23.1,18.1,-2.4,5.73,1.94,-5.9,27.4
2015-05-11 01:31:00,0.0,1.90910,0.00038,404.485,0.021,0.6825,0.0025,139.999,45.000,34024.67038,1.92220,407.875,33.627,45.068,45.000,0.00,0.09,-272.71,-272.77,-5,977,-5,23.5,17.6,-2.6,23.2,18.1,-2.4,5.73,1.83,-6.0,27.4
2015-05-11 01:32:00,0.0,1.90907,0.00034,404.468,0.046,0.6866,0.0018,140.000,45.000,34026.46724,1.92227,407.880,33.625,45.068,45.000,0.00,0.10,-272.71,-272.77,-5,976,-5,23.5,17.7,-2.4,23.2,18.2,-2.3,5.73,1.82,-6.0,27.4
2015-05-11 01:33:00,0.0,1.90923,0.00034,404.454,0.036,0.6891,0.0013,140.000,45.000,34027.26194,1.92245,407.878,33.624,45.068,45.000,0.00,0.09,-272.72,-272.77,-5,976,-5,23.5,17.7,-2.4,23.2,18.3,-2.3,5.73,1.93,-6.0,27.4
2015-05-11 01:34:00,0.0,1.90917,0.00043,404.444,0.028,0.6891,0.0023,140.001,45.000,34027.12148,1.92237,407.869,33.627,45.068,45.000,0.00,0.10,-272.71,-272.77,-5,977,-5,23.5,17.7,-2.4,23.2,18.3,-2.3,5.73,1.92,-5.9,27.4
2015-05-11 01:35:00,0.0,1.90926,0.00034,404.451,0.029,0.6889,0.0019,140.000,45.000,34025.43072,1.92250,407.874,33.628,45.068,45.000,0.00,0.10,-272.70,-272.77,-5,977,-5,23.5,17.7,-2.4,23.2,18.3,-2.3,5.73,1.81,-6.0,27.4
2015-05-11 01:36:00,0.0,1.90939,0.00043,404.464,0.027,0.6904,0.0020,140.001,45.000,34025.38504,1.92264,407.896,33.649,45.068,45.000,0.00,0.09,-272.72,-272.78,-4,976,-5,23.5,17.8,-2.4,23.2,18.3,-2.3,5.73,1.84,-5.9,27.4
2015-05-11 01:37:00,0.0,1.90934,0.00043,404.461,0.027,0.6910,0.0016,140.000,45.000,34025.88854,1.92259,407.895,33.659,45.068,45.000,0.00,0.09,-272.71,-272.78,-5,977,-5,23.5,17.8,-2.4,23.2,18.3,-2.2,5.73,1.94,-5.9,27.4
2015-05-11 01:38:00,0.0,1.90956,0.00032,404.487,0.028,0.6924,0.0019,140.004,45.000,34025.47335,1.92285,407.927,33.673,45.068,45.000,0.00,0.10,-272.71,-272.77,-5,976,-5,23.5,17.8,-2.3,23.2,18.3,-2.2,5.73,1.90,-5.9,27.4
2015-05-11 01:39:00,0.0,1.90976,0.00038,404.460,0.023,0.6937,0.0020,139.997,45.000,34025.23547,1.92309,407.907,33.652,45.068,45.000,0.00,0.10,-272.71,-272.77,-5,976,-5,23.5,17.9,-2.3,23.2,18.4,-2.2,5.73,1.80,-5.9,27.4
2015-05-11 01:40:00,0.0,1.90918,0.00033,404.457,0.030,0.6947,0.0020,139.998,45.000,34028.85961,1.92253,407.911,33.671,45.068,45.000,0.00,0.10,-272.72,-272.77,-4,977,-5,23.5,17.9,-2.3,23.2,18.4,-2.1,5.73,1.86,-6.0,27.4
2015-05-11 01:41:00,0.0,1.90915,0.00028,404.439,0.025,0.6936,0.0020,140.002,45.000,34029.02252,1.92247,407.886,33.687,45.068,45.000,0.00,0.10,-272.72,-272.77,-5,977,-5,23.5,17.8,-2.3,23.2,18.4,-2.2,5.73,1.95,-5.9,27.4
2015-05-11 01:42:00,0.0,1.90896,0.00035,404.462,0.026,0.6924,0.0026,140.001,45.000,34030.11511,1.92226,407.904,33.686,45.068,45.000,0.00,0.10,-272.71,-272.77,-5,976,-5,23.5,17.8,-2.4,23.2,18.3,-2.2,5.73,1.88,-5.9,27.4
2015-05-11 01:43:00,0.0,1.90910,0.00026,404.457,0.027,0.6913,0.0017,140.001,45.000,34027.98530,1.92240,407.890,33.691,45.068,45.000,0.00,0.09,-272.71,-272.77,-5,977,-5,23.5,17.8,-2.4,23.2,18.3,-2.2,5.73,1.80,-5.9,27.4
2015-05-11 01:44:00,0.0,1.90893,0.00046,404.491,0.035,0.6908,0.0024,140.000,45.000,34027.49197,1.92217,407.925,33.696,45.068,45.000,0.00,0.09,-272.72,-272.77,-5,977,-5,23.5,17.8,-2.4,23.2,18.3,-2.2,5.73,1.89,-5.9,27.5
2015-05-11 01:45:00,0.0,1.90889,0.00033,404.465,0.034,0.6924,0.0020,140.000,45.000,34028.20247,1.92217,407.908,33.709,45.068,45.000,0.00,0.10,-272.71,-272.76,-4,976,-5,23.5,17.8,-2.3,23.2,18.3,-2.2,5.73,1.94,-6.0,27.5
2015-05-11 01:46:00,0.0,1.90884,0.00047,404.467,0.031,0.6920,0.0018,139.995,45.000,34028.67759,1.92213,407.906,33.720,45.068,45.000,0.00,0.10,-272.71,-272.77,-5,977,-5,23.5,17.8,-2.4,23.2,18.3,-2.2,5.73,1.84,-5.9,27.4